User: anonymous   Login
Location: Montague
(41.3030°N, 74.7940°W)
Time: 07:09:10
(UTC-04:00)
Language:

Cosmos 1461 - Orbit

View from above orbital plane
View from above orbital plane
View from above satellite
View from above satellite

Ground track
Ground track

The orbit data is extracted from the following two-line orbital elements,

1 14064U 83044A   16126.40732023  .00000850  00000-0  87123-4 0  9999
2 14064  65.0002 105.8313 0113920 215.3310 144.0220 14.92933609662465
Epoch (UTC): 05 May 2016 09:46:32
Eccentricity: 0.0113920
inclination: 65.0002°
perigee height: 509 km
apogee height: 668 km
right ascension of ascending node: 105.8313°
argument of perigee: 215.3310°
revolutions per day: 14.92933609
mean anomaly at epoch: 144.0220°
orbit number at epoch: 66246

The dashed part of the orbit path shows where the satellite is in the earth's shadow,  

DLR